HAZ5408 ZSLG-ZSPD

Flight info

Callsign HAZ5408
Flight time 0h 49m
Altitude 31100
Route RUX92D RUXEL W178 OSIKI W166 ZJ W167 SASAN R343 EKIMU
Aircraft A21N/M-SDE2E3FGHIRWXY/LB1

Departure

Time 2026-05-05 05:43
Airport Lianyungang Huaguoshan International Airport (ZSLG)

Arrival

Time 2026-05-05 06:33
Airport Shanghai Pudong International Airport (ZSPD)
Time Latitude Longitude Altitude Speed Heading
2026-05-05 05:29 34.41094 119.18323 13 ft 0 kts 117°
2026-05-05 05:35 34.41096 119.18318 13 ft 2 kts 117°
2026-05-05 05:35 34.41103 119.18302 14 ft 2 kts 116°
2026-05-05 05:35 34.41110 119.18285 13 ft 2 kts 117°
2026-05-05 05:36 34.41121 119.18272 14 ft 2 kts 156°
2026-05-05 05:36 34.41136 119.18269 14 ft 2 kts 186°
2026-05-05 05:36 34.41145 119.18272 14 ft 0 kts 205°
2026-05-05 05:36 34.41151 119.18276 14 ft 0 kts 207°
2026-05-05 05:39 34.41132 119.18263 14 ft 5 kts 207°
2026-05-05 05:39 34.41085 119.18234 13 ft 9 kts 207°
2026-05-05 05:39 34.41014 119.18192 13 ft 12 kts 206°
2026-05-05 05:40 34.40963 119.18122 14 ft 11 kts 277°
2026-05-05 05:40 34.40998 119.18039 16 ft 10 kts 300°
2026-05-05 05:40 34.41032 119.17960 17 ft 10 kts 289°
2026-05-05 05:40 34.41008 119.17884 17 ft 11 kts 206°
2026-05-05 05:41 34.40928 119.17838 17 ft 17 kts 206°
2026-05-05 05:41 34.40812 119.17768 17 ft 19 kts 206°
2026-05-05 05:41 34.40689 119.17696 17 ft 20 kts 205°
2026-05-05 05:41 34.40562 119.17617 17 ft 20 kts 208°
2026-05-05 05:42 34.40431 119.17538 17 ft 21 kts 205°
2026-05-05 05:42 34.40294 119.17458 17 ft 22 kts 206°
2026-05-05 05:42 34.40166 119.17381 17 ft 14 kts 206°
2026-05-05 05:42 34.40129 119.17289 17 ft 14 kts 298°
2026-05-05 05:43 34.40184 119.17188 16 ft 13 kts 334°
2026-05-05 05:43 34.40274 119.17229 17 ft 14 kts 28°
2026-05-05 05:43 34.40434 119.17326 17 ft 52 kts 26°
2026-05-05 05:43 34.41011 119.17674 17 ft 129 kts 26°
2026-05-05 05:44 34.42006 119.18270 47 ft 186 kts 26°
2026-05-05 05:44 34.43226 119.18993 548 ft 200 kts 26°
2026-05-05 05:44 34.44465 119.19722 1456 ft 197 kts 26°
2026-05-05 05:44 34.45676 119.20375 2316 ft 194 kts 15°
2026-05-05 05:45 34.47010 119.20248 2791 ft 204 kts 329°
2026-05-05 05:45 34.48017 119.19001 3288 ft 214 kts 294°
2026-05-05 05:45 34.48294 119.17233 3742 ft 228 kts 261°
2026-05-05 05:45 34.47774 119.15350 4312 ft 242 kts 245°
2026-05-05 05:46 34.47155 119.13465 5245 ft 244 kts 248°
2026-05-05 05:46 34.46590 119.11556 6173 ft 246 kts 249°
2026-05-05 05:46 34.46037 119.09629 7030 ft 249 kts 248°
2026-05-05 05:46 34.45158 119.07826 7868 ft 251 kts 224°
2026-05-05 05:47 34.43722 119.06681 8733 ft 253 kts 207°
2026-05-05 05:47 34.42115 119.05803 9582 ft 256 kts 204°
2026-05-05 05:47 34.40484 119.04940 10379 ft 261 kts 205°
2026-05-05 05:47 34.38837 119.04037 11155 ft 265 kts 206°
2026-05-05 05:48 34.37153 119.03082 11910 ft 270 kts 207°
2026-05-05 05:48 34.35467 119.02105 12650 ft 274 kts 207°
2026-05-05 05:48 34.33740 119.01093 13392 ft 279 kts 208°
2026-05-05 05:48 34.31976 119.00054 14124 ft 283 kts 208°
2026-05-05 05:49 34.30201 118.99007 14858 ft 287 kts 208°
2026-05-05 05:49 34.28429 118.97934 15572 ft 291 kts 211°
2026-05-05 05:49 34.26707 118.96640 16268 ft 293 kts 218°
2026-05-05 05:49 34.25063 118.95094 16718 ft 306 kts 222°
2026-05-05 05:50 34.23388 118.93388 17046 ft 323 kts 223°
2026-05-05 05:50 34.21643 118.91592 17358 ft 340 kts 223°
2026-05-05 05:50 34.19801 118.89705 17662 ft 357 kts 223°
2026-05-05 05:50 34.17874 118.87743 17956 ft 373 kts 222°
2026-05-05 05:51 34.15832 118.85670 18234 ft 388 kts 222°
2026-05-05 05:51 34.13716 118.83540 18503 ft 403 kts 220°
2026-05-05 05:51 34.11311 118.81702 18780 ft 419 kts 208°
2026-05-05 05:51 34.08546 118.80484 19323 ft 427 kts 196°
2026-05-05 05:52 34.05616 118.79879 19972 ft 431 kts 189°
2026-05-05 05:52 34.02630 118.79414 20545 ft 435 kts 189°
2026-05-05 05:52 33.99598 118.78960 21075 ft 440 kts 189°
2026-05-05 05:52 33.96574 118.78500 21601 ft 443 kts 189°
2026-05-05 05:53 33.93483 118.78021 22122 ft 447 kts 189°
2026-05-05 05:53 33.90406 118.77536 22623 ft 451 kts 189°
2026-05-05 05:53 33.87259 118.77034 23114 ft 455 kts 189°
2026-05-05 05:53 33.84141 118.76536 23572 ft 458 kts 189°
2026-05-05 05:54 33.80953 118.76026 24011 ft 462 kts 189°
2026-05-05 05:54 33.77743 118.75512 24472 ft 465 kts 189°
2026-05-05 05:54 33.74544 118.74999 24909 ft 468 kts 189°
2026-05-05 05:54 33.71304 118.74479 25324 ft 471 kts 189°
2026-05-05 05:55 33.68037 118.73957 25747 ft 473 kts 189°
2026-05-05 05:55 33.64804 118.73441 26287 ft 472 kts 189°
2026-05-05 05:55 33.61569 118.72923 26857 ft 469 kts 189°
2026-05-05 05:55 33.58326 118.72406 27381 ft 468 kts 190°
2026-05-05 05:56 33.55108 118.71891 27863 ft 468 kts 190°
2026-05-05 05:56 33.51890 118.71376 28337 ft 467 kts 190°
2026-05-05 05:56 33.48680 118.70863 28805 ft 466 kts 190°
2026-05-05 05:56 33.45443 118.70348 29286 ft 465 kts 190°
2026-05-05 05:57 33.42244 118.69836 29707 ft 465 kts 190°
2026-05-05 05:57 33.39054 118.69325 30042 ft 467 kts 190°
2026-05-05 05:57 33.35790 118.68802 30342 ft 469 kts 190°
2026-05-05 05:57 33.32576 118.68288 30665 ft 470 kts 190°
2026-05-05 05:58 33.29311 118.67770 30952 ft 471 kts 189°
2026-05-05 05:58 33.26052 118.67569 31000 ft 476 kts 181°
2026-05-05 05:58 33.19523 118.68942 31010 ft 480 kts 163°
2026-05-05 05:59 33.13554 118.72588 31016 ft 484 kts 147°
2026-05-05 05:59 33.08023 118.77234 31017 ft 494 kts 146°
2026-05-05 06:00 33.02362 118.82004 31018 ft 501 kts 146°
2026-05-05 06:00 32.96660 118.86741 31019 ft 501 kts 146°
2026-05-05 06:01 32.90965 118.91442 31019 ft 500 kts 147°
2026-05-05 06:01 32.85155 118.96230 31017 ft 500 kts 146°
2026-05-05 06:02 32.79440 119.00967 31019 ft 500 kts 146°
2026-05-05 06:02 32.73760 119.05683 31021 ft 499 kts 147°
2026-05-05 06:03 32.68083 119.10389 31022 ft 499 kts 147°
2026-05-05 06:03 32.62400 119.15092 31030 ft 499 kts 147°
2026-05-05 06:04 32.56706 119.19794 31028 ft 498 kts 147°
2026-05-05 06:04 32.51025 119.24479 31037 ft 498 kts 147°
2026-05-05 06:05 32.45355 119.29148 31029 ft 498 kts 147°
2026-05-05 06:05 32.39677 119.33817 31036 ft 497 kts 147°
2026-05-05 06:06 32.34003 119.38476 31040 ft 497 kts 147°
2026-05-05 06:06 32.28321 119.43132 31038 ft 497 kts 147°
2026-05-05 06:07 32.22622 119.47795 31041 ft 497 kts 147°
2026-05-05 06:07 32.16975 119.52409 31033 ft 498 kts 147°
2026-05-05 06:08 32.11281 119.57056 31025 ft 497 kts 147°
2026-05-05 06:08 32.05589 119.61696 31026 ft 496 kts 147°
2026-05-05 06:09 31.99917 119.66366 31024 ft 497 kts 146°
2026-05-05 06:09 31.94694 119.71696 31026 ft 501 kts 137°
2026-05-05 06:10 31.90111 119.77980 31029 ft 504 kts 128°
2026-05-05 06:10 31.86132 119.84829 31041 ft 505 kts 126°
2026-05-05 06:11 31.82216 119.91705 31034 ft 505 kts 126°
2026-05-05 06:11 31.78279 119.98563 31036 ft 506 kts 126°
2026-05-05 06:12 31.74307 120.05441 31032 ft 506 kts 126°
2026-05-05 06:12 31.70377 120.12233 31038 ft 507 kts 127°
2026-05-05 06:13 31.66379 120.19129 31022 ft 507 kts 127°
2026-05-05 06:13 31.62411 120.25964 31052 ft 508 kts 127°
2026-05-05 06:14 31.58783 120.33113 31036 ft 512 kts 118°
2026-05-05 06:14 31.56210 120.40897 31053 ft 515 kts 111°
2026-05-05 06:15 31.53914 120.48850 31061 ft 515 kts 110°
2026-05-05 06:15 31.51600 120.56786 31054 ft 515 kts 111°
2026-05-05 06:16 31.49246 120.64747 30994 ft 517 kts 111°
2026-05-05 06:16 31.48077 120.68678 30769 ft 511 kts 111°
2026-05-05 06:16 31.46919 120.72577 30439 ft 499 kts 111°
2026-05-05 06:17 31.45785 120.76382 30115 ft 490 kts 111°
2026-05-05 06:17 31.44665 120.80117 29765 ft 486 kts 112°
2026-05-05 06:17 31.43519 120.83839 29395 ft 486 kts 112°
2026-05-05 06:17 31.42373 120.87507 29019 ft 486 kts 113°
2026-05-05 06:18 31.41209 120.91219 28553 ft 487 kts 112°
2026-05-05 06:18 31.40038 120.94954 27806 ft 487 kts 112°
2026-05-05 06:18 31.38901 120.98656 27078 ft 486 kts 111°
2026-05-05 06:18 31.37774 121.02368 26339 ft 484 kts 111°
2026-05-05 06:19 31.36660 121.06050 25607 ft 484 kts 111°
2026-05-05 06:19 31.35543 121.09727 24869 ft 482 kts 111°
2026-05-05 06:19 31.34432 121.13394 24114 ft 480 kts 110°
2026-05-05 06:19 31.33327 121.17072 23348 ft 477 kts 110°
2026-05-05 06:20 31.32249 121.20675 22554 ft 474 kts 110°
2026-05-05 06:20 31.31161 121.24300 21769 ft 470 kts 110°
2026-05-05 06:20 31.30091 121.27866 20947 ft 454 kts 110°
2026-05-05 06:20 31.29063 121.31280 20059 ft 438 kts 110°
2026-05-05 06:21 31.28077 121.34541 19149 ft 423 kts 110°
2026-05-05 06:21 31.27111 121.37725 18249 ft 410 kts 110°
2026-05-05 06:21 31.26172 121.40816 17398 ft 399 kts 110°
2026-05-05 06:21 31.25269 121.43787 16506 ft 389 kts 109°
2026-05-05 06:22 31.24365 121.46753 15646 ft 381 kts 109°
2026-05-05 06:22 31.23492 121.49618 14816 ft 373 kts 109°
2026-05-05 06:22 31.22738 121.52444 13902 ft 366 kts 99°
2026-05-05 06:22 31.22821 121.55341 13031 ft 356 kts 74°
2026-05-05 06:23 31.23621 121.58035 12191 ft 349 kts 66°
2026-05-05 06:23 31.24639 121.60557 11324 ft 341 kts 54°
2026-05-05 06:23 31.26332 121.62356 10614 ft 326 kts 24°
2026-05-05 06:23 31.28427 121.62917 10187 ft 305 kts 354°
2026-05-05 06:24 31.30374 121.62215 9679 ft 288 kts 327°
2026-05-05 06:24 31.31994 121.60927 9110 ft 281 kts 327°
2026-05-05 06:24 31.33712 121.59827 8445 ft 278 kts 334°
2026-05-05 06:24 31.35479 121.58949 7800 ft 275 kts 338°
2026-05-05 06:25 31.37229 121.58205 7375 ft 265 kts 341°
2026-05-05 06:25 31.39031 121.57946 6979 ft 259 kts 12°
2026-05-05 06:25 31.40571 121.58894 6693 ft 253 kts 47°
2026-05-05 06:25 31.41330 121.60711 6379 ft 248 kts 80°
2026-05-05 06:26 31.41497 121.62691 6089 ft 244 kts 85°
2026-05-05 06:26 31.41658 121.64663 5821 ft 240 kts 83°
2026-05-05 06:26 31.41876 121.66589 5565 ft 237 kts 87°
2026-05-05 06:26 31.41588 121.68434 5183 ft 237 kts 122°
2026-05-05 06:27 31.40355 121.69665 4844 ft 233 kts 161°
2026-05-05 06:27 31.37261 121.70629 4231 ft 229 kts 163°
2026-05-05 06:27 31.35721 121.71182 3716 ft 238 kts 162°
2026-05-05 06:28 31.34117 121.71780 3218 ft 244 kts 162°
2026-05-05 06:28 31.32513 121.72398 2983 ft 236 kts 162°
2026-05-05 06:28 31.30987 121.72990 2898 ft 224 kts 162°
2026-05-05 06:28 31.29548 121.73539 2674 ft 213 kts 163°
2026-05-05 06:29 31.28161 121.74063 2428 ft 198 kts 163°
2026-05-05 06:29 31.26944 121.74522 2215 ft 173 kts 163°
2026-05-05 06:29 31.25865 121.74927 1987 ft 154 kts 163°
2026-05-05 06:29 31.24900 121.75289 1742 ft 138 kts 163°
2026-05-05 06:30 31.24017 121.75622 1544 ft 129 kts 164°
2026-05-05 06:30 31.23165 121.75943 1391 ft 129 kts 164°
2026-05-05 06:30 31.22311 121.76265 1240 ft 129 kts 164°
2026-05-05 06:30 31.21457 121.76588 1086 ft 128 kts 165°
2026-05-05 06:31 31.20608 121.76907 931 ft 128 kts 163°
2026-05-05 06:31 31.19756 121.77231 765 ft 128 kts 163°
2026-05-05 06:31 31.18910 121.77551 596 ft 127 kts 164°
2026-05-05 06:31 31.18048 121.77876 425 ft 127 kts 164°
2026-05-05 06:32 31.17199 121.78198 257 ft 128 kts 164°
2026-05-05 06:32 31.16347 121.78516 108 ft 127 kts 162°
2026-05-05 06:32 31.15518 121.78837 22 ft 117 kts 162°
2026-05-05 06:32 31.14876 121.79069 21 ft 72 kts 162°
2026-05-05 06:33 31.14567 121.79192 21 ft 23 kts 153°
2026-05-05 06:33 31.14452 121.79304 21 ft 16 kts 132°
2026-05-05 06:33 31.14374 121.79400 21 ft 16 kts 134°
2026-05-05 06:33 31.14293 121.79498 21 ft 16 kts 139°
2026-05-05 06:34 31.14190 121.79553 21 ft 16 kts 163°
2026-05-05 06:34 31.14083 121.79591 21 ft 15 kts 162°
2026-05-05 06:34 31.14035 121.79684 21 ft 15 kts 84°
2026-05-05 06:34 31.14057 121.79805 21 ft 15 kts 70°
2026-05-05 06:35 31.14077 121.79916 21 ft 13 kts 116°
2026-05-05 06:35 31.14014 121.80000 21 ft 14 kts 126°
2026-05-05 06:35 31.13970 121.80077 21 ft 1 kts 125°
2026-05-05 06:35 31.13968 121.80081 21 ft 0 kts 125°